sat.trackr.live / text

‹ back to catalog

ONEWEB-0637

NORAD 56078 · 2023-043AJ

PAYLOAD ACTIVE UNKNOWN

§ Identity

Operator
Country
UK
Launch date
2023-03-26
Launch site
SRILR
Launch vehicle
Mass (kg)
RCS (m²)

Purposes: comms

External: N2YO · Heavens-Above · Gunter

§ Orbital elements

Epoch: 2026-05-25T02:01:42.254112Z

Period
109.46 min
Inclination
87.8990°
Eccentricity
0.0002206
Mean motion
13.15547470 rev/d
Perigee alt
1,200.1 km
Apogee alt
1,203.4 km
Semi-major
7,579.9 km
B*
3.0508e-4
RAAN
263.8184°
Arg perigee
104.4779°
Mean anomaly
255.6596°
Rev number
15,339

§ Raw data

ONEWEB-06371 56078U 23043AJ  26145.08451683  .00000128  00000+0  30508-3 0  99902 56078  87.8990 263.8184 0002206 104.4779 255.6596 13.15547470153399

JSON: /api/v1/satellites/56078 · /tle

For live sub-satellite position, see the globe view (requires WebGL).

§ Visibility from observer

Set your observer location to see the next 7 days of passes ≥ 10°. The values pass through the URL so the page stays shareable.

No JS? Fill the form by hand. The geolocation button needs JavaScript.